Flag for Switzerland Weather past 2 weeks in Wädenswil, Zurich, Switzerland

Now
80 °F

Warm.


Feels Like: 80 °F
Forecast: 60 / 87 °F
Wind: 3 mph from North

Location: Zurich Town / Ville.

Current Time: Aug 30, 2015 at 9:10:37 PM

Latest Report: Aug 30, 2015 at 8:00 PM


Visibility: N/A

Pressure: 29.98 "Hg

Humidity: 42%

Dew point: 54 °F

Location of WädenswilLocation

Historic Weather in Wädenswil — Graph

°F

Wädenswil temperature yesterday

Maximum temperature yesterday: 88 °F (at 5:00 PM)
Minimum temperature yesterday: 64 °F (at 7:00 AM)
Average temperature yesterday: 76 °F

Past Weeks' High & Low Weather Summary

 TemperatureHumidityPressure
High89 °F (Aug 30, 4:00 PM)98% (Aug 16, 4:00 AM)30.26 "Hg (Aug 16, 4:00 AM)
Low52 °F (Aug 20, 7:00 AM)23% (Aug 30, 3:00 PM)29.70 "Hg (Aug 24, 2:00 PM)
Average65 °F72%30.01 "Hg
* Reported Aug 15 7:00 PM — Aug 30 7:00 PM, Wädenswil, Weather by CustomWeather, © 2015

Note: Actual official high and low records may vary slightly from our data, if they occured in-between our weather recording intervals... More about our weather records

Advertising

Wädenswil weather history for previous 24 hours

 ConditionsComfort  
Time TempWeatherWind HumidityBarometerVisibility
7:00 PM
Sun, Aug 30
86 °FPleasantly warm.2 mph32%29.96 "HgN/A
6:00 PM88 °FHot.2 mph27%29.95 "HgN/A
5:00 PM89 °FHot.2 mph24%29.96 "HgN/A
4:00 PM89 °FHot.3 mph24%29.98 "HgN/A
3:00 PM89 °FHot.3 mph23%30.00 "HgN/A
2:00 PM86 °FPassing clouds.3 mph30%30.03 "HgN/A
1:00 PM85 °FPleasantly warm.3 mph33%30.06 "HgN/A
12:00 PM82 °FWarm.3 mph50%30.09 "HgN/A
11:00 AM78 °FWarm.2 mph54%30.11 "HgN/A
10:00 AM75 °FMild.1 mph67%30.12 "HgN/A
9:00 AM72 °FMild.No wind72%30.13 "HgN/A
8:00 AM69 °FMild.1 mph79%30.13 "HgN/A
7:00 AM70 °FMild.3 mph73%30.12 "HgN/A
6:00 AM71 °FMild.3 mph71%30.11 "HgN/A
5:00 AM70 °FMild.2 mph83%30.10 "HgN/A
4:00 AM71 °FMild.2 mph80%30.10 "HgN/A
3:00 AM71 °FMild.2 mph76%30.10 "HgN/A
2:00 AM72 °FMild.1 mph73%30.10 "HgN/A
1:00 AM72 °FMild.1 mph72%30.09 "HgN/A
12:00 AM73 °FMild.1 mph69%30.08 "HgN/A
10:00 PM
Sat, Aug 29
76 °FMild.5 mph60%30.06 "HgN/A
9:00 PM77 °FWarm.5 mph58%30.04 "HgN/A
Weather by CustomWeather, © 2015

See weather overviewHow to use our weather pages